星链-2699 (STARLINK-2699 )

导读

STARLINK-2699是美国太空探索技术公司(SpaceX)星链星座中的一颗卫星,于2021年5月9日发射入轨,属于Starlink Group 2-1批次。星链项目旨在构建全球卫星互联网星座,该卫星承担着为全球尤其是偏远地区提供低延迟、高速宽带互联网接入服务的任务,是星链大规模组网中的组成单元。

Basic Information
目录编号:
48433
目录名称:
STARLINK-2699
国际标识:
2021-040F
轨道中心:
EARTH
卫星名称:
星链-2699
卫星全名:
星链-2699 (STARLINK-2699 )
卫星状态:
在轨 (已飞行1954 天)
发射日期:
2021-05-09 UTC
国别 :
美国 (US)
星等 :
--
This satellite is enrolled in the Space Conjunction Data Service (SCDS) and the current flight risk assessment level is: High Risk
Orbit Information
数据来源 国际轨道数据 AOE轨道数据
星历时间 2026-09-14T00:32:41+0800
13小时前
查看轨道信息
2026-09-11T07:00:00+0800
3天前
查看轨道信息
半长轴 6848.795km 6848.835km
偏心率 0.0001248 0.0001248
轨道倾角 53.162° 53.161°
近地点辐角 85.440° 77.746°
升交点赤经 357.714° 10.431°
平近点角 274.675° 334.681°
近地点 469.803km 469.843km
远地点 471.513km 471.553km
周期 94.011分钟 94.012分钟
每日圈数 15.317276 15.317144
Detailed Information
固有亮度:
5
最大亮度:
2.5
卫星平台:
Starlink V1.0
覆盖范围:
全球
运营商:
太空探索技术公司
运营商所在国:
美国
制造商(研发单位):
太空探索技术公司
制造商所在国:
美国
使用方式:
暂无
Satellite Introduction
星链(Starlink)计划是由太空探索技术公司(SpaceX)提出的一个巨型低轨卫星互联网星座项目,计划在2019年至2024年间在太空搭建由约1.2万颗卫星组成的“星链”网络,其中1584颗将部署在地球上空550千米处的近地轨道,并从2020年开始工作。该卫星仍在工作。
2D Orbit Map
3D Orbit Map
Orbit Altitude Analysis Chart
Orbit Inclination Analysis Chart
Orbit Comprehensive Analysis Chart
View Comprehensive Chart
Conjunction Data List
Event ID Objects TCA Miss Dist (km) Collision Risk Probability Collision Risk Index (CRI) Action
CDM_260916-170804-843306-822321
2026-09-16T
17:08:32+0000
2.915 km
极远距离
1.362414E-6 低风险 0.38
CDM_260915-181604-843306-891521
2026-09-15T
18:16:37+0000
2.768 km
极远距离
1.330983E-6 低风险 0.37
CDM_260916-143904-843306-860521
2026-09-16T
14:39:28+0000
2.916 km
极远距离
1.271575E-6 低风险 0.37
Miss Distance Evolution Trend with All Objects Subscribe to Flight Safety Assessment
Collision Probability Evolution Trend with All Objects Subscribe to Flight Safety Assessment